User: anonymous   Login
Location: Unspecified
(0.0000°N, 0.0000°E)
Time: 16:26:25
(UTC+00:00)
Language:

OBJECT K - Orbit

View from above orbital plane
View from above orbital plane
View from above satellite
View from above satellite

Ground track
Ground track

The orbit data is extracted from the following two-line orbital elements,

1 42834U 17042K   21334.08365846  .00000546  00000-0  59396-4 0  9999
2 42834  97.4449 195.3954 0012388 320.7182  39.3138 14.91699413238402
Epoch (UTC): 30 November 2021 02:00:28
Eccentricity: 0.0012388
inclination: 97.4449°
perigee height: 584 km
apogee height: 601 km
right ascension of ascending node: 195.3954°
argument of perigee: 320.7182°
revolutions per day: 14.91699413
mean anomaly at epoch: 39.3138°
orbit number at epoch: 23840

The dashed part of the orbit path shows where the satellite is in the earth's shadow,  

DLR